Location: Boitzum
(52.1496°N, 9.6943°E)
Time: 21:09:05
(UTC+00:00)

Cosmos 381 Rocket - Pass Details

Date: 13 January 2026
Orbit: 956 x 994 km, 74.0° (Epoch: 16 February)

Event Time Altitude Azimuth Distance (km) Brightness Sun altitude
Exits shadow 04:34:48 11° 202° (SSW) 2,696 6.6 -25.1°
Maximum altitude 04:41:04 88° 114° (ESE) 1,002 4.5 -24.2°
Drops below altitude 10° 04:47:30 10° 26° (NNE) 2,763 7.1 -23.2°
Sets 04:50:04 0° 26° (NNE) 3,712 7.8 -22.8°
